Time,TemperatureF,DewpointF,PressureIn,WindDirection,WindDirectionDegrees,WindSpeedMPH,WindSpeedGustMPH,Humidity,HourlyPrecipIn,Conditions,Clouds,dailyrainin,SolarRadiationWatts/m^2,SoftwareType,DateUTC
2013-06-03 00:01:00,65.8,63.1,29.81,SW,236,3.0,10.0,91,0.00,,CLR,0.00,0.00,VWS V14.01,2013-06-03 04:01:00,
2013-06-03 00:05:00,65.8,63.1,29.81,West,260,12.0,18.0,91,0.00,,CLR,0.00,0.00,VWS V14.01,2013-06-03 04:05:00,
2013-06-03 00:09:00,65.8,63.1,29.81,WSW,240,11.0,23.0,91,0.00,,CLR,0.00,0.00,VWS V14.01,2013-06-03 04:09:00,
2013-06-03 00:10:00,65.8,63.1,29.81,WSW,244,11.0,11.0,91,0.00,,CLR,0.00,0.00,VWS V14.01,2013-06-03 04:10:00,
2013-06-03 00:14:00,65.8,63.1,29.81,West,266,15.0,18.0,91,0.00,,CLR,0.00,0.00,VWS V14.01,2013-06-03 04:14:00,
2013-06-03 00:19:00,65.7,63.0,29.81,WSW,238,10.0,20.0,91,0.00,,CLR,0.00,0.00,VWS V14.01,2013-06-03 04:19:00,
2013-06-03 00:24:00,65.7,63.0,29.81,SW,232,3.0,20.0,91,0.00,,CLR,0.00,0.00,VWS V14.01,2013-06-03 04:24:00,
2013-06-03 00:29:00,65.6,62.9,29.80,West,261,4.0,21.0,91,0.00,,CLR,0.00,0.00,VWS V14.01,2013-06-03 04:29:00,
2013-06-03 00:34:00,65.5,62.8,29.80,WSW,242,5.0,20.0,91,0.00,,CLR,0.00,0.00,VWS V14.01,2013-06-03 04:34:00,
2013-06-03 00:39:00,65.4,62.7,29.80,WNW,302,3.0,17.0,91,0.00,,CLR,0.00,0.00,VWS V14.01,2013-06-03 04:39:00,
2013-06-03 00:44:00,65.4,62.7,29.80,West,279,16.0,19.0,91,0.00,,CLR,0.00,0.00,VWS V14.01,2013-06-03 04:44:00,
2013-06-03 00:49:00,65.4,62.7,29.80,WSW,250,7.0,15.0,91,0.00,,CLR,0.00,0.00,VWS V14.01,2013-06-03 04:49:00,
2013-06-03 00:54:00,65.5,62.8,29.80,WSW,253,3.0,12.0,91,0.00,,CLR,0.00,0.00,VWS V14.01,2013-06-03 04:54:00,
2013-06-03 00:59:00,65.6,62.9,29.80,West,279,11.0,14.0,91,0.00,,CLR,0.00,0.00,VWS V14.01,2013-06-03 04:59:00,
2013-06-03 01:04:00,65.5,62.8,29.80,WSW,257,7.0,17.0,91,0.00,,OVC100,0.00,0.00,VWS V14.01,2013-06-03 05:04:00,
2013-06-03 01:09:00,65.4,62.7,29.80,WNW,302,4.0,14.0,91,0.00,,OVC100,0.00,0.00,VWS V14.01,2013-06-03 05:09:00,
2013-06-03 01:14:00,65.4,62.7,29.80,West,259,9.0,15.0,91,0.00,,OVC100,0.00,0.00,VWS V14.01,2013-06-03 05:14:00,
2013-06-03 01:19:00,65.2,62.5,29.80,WSW,244,7.0,17.0,91,0.00,,OVC100,0.00,0.00,VWS V14.01,2013-06-03 05:19:00,
2013-06-03 01:24:00,65.1,62.7,29.80,West,280,6.0,17.0,92,0.00,,OVC100,0.00,0.00,VWS V14.01,2013-06-03 05:24:00,
2013-06-03 01:29:00,65.0,62.6,29.80,West,279,0.0,16.0,92,0.00,,OVC100,0.00,0.00,VWS V14.01,2013-06-03 05:29:00,
2013-06-03 01:34:00,65.0,62.6,29.80,SW,236,12.0,18.0,92,0.00,,OVC100,0.00,0.00,VWS V14.01,2013-06-03 05:34:00,
2013-06-03 01:39:00,65.1,62.7,29.80,West,264,9.0,13.0,92,0.00,,OVC100,0.00,0.00,VWS V14.01,2013-06-03 05:39:00,
2013-06-03 01:44:00,65.2,62.8,29.80,WSW,254,13.0,16.0,92,0.00,,OVC100,0.00,0.00,VWS V14.01,2013-06-03 05:44:00,
2013-06-03 01:49:00,65.3,62.9,29.81,NNW,336,8.0,13.0,92,0.00,,OVC100,0.00,0.00,VWS V14.01,2013-06-03 05:49:00,
2013-06-03 01:54:00,65.4,63.0,29.81,WNW,292,1.0,11.0,92,0.00,,OVC100,0.00,0.00,VWS V14.01,2013-06-03 05:54:00,
2013-06-03 01:59:00,65.4,63.0,29.81,SW,235,4.0,16.0,92,0.00,,OVC100,0.00,0.00,VWS V14.01,2013-06-03 05:59:00,
2013-06-03 02:04:00,65.4,63.0,29.80,WSW,257,7.0,12.0,92,0.00,,OVC110,0.00,0.00,VWS V14.01,2013-06-03 06:04:00,
2013-06-03 02:09:00,65.4,63.0,29.80,West,259,7.0,10.0,92,0.00,,OVC110,0.00,0.00,VWS V14.01,2013-06-03 06:09:00,
2013-06-03 02:14:00,65.3,62.9,29.80,West,275,1.0,12.0,92,0.00,,OVC110,0.00,0.00,VWS V14.01,2013-06-03 06:14:00,
2013-06-03 02:19:00,65.0,62.6,29.80,WSW,250,7.0,13.0,92,0.00,,OVC110,0.00,0.00,VWS V14.01,2013-06-03 06:19:00,
2013-06-03 02:24:00,64.9,62.5,29.80,West,277,0.0,14.0,92,0.00,,OVC110,0.00,0.00,VWS V14.01,2013-06-03 06:24:00,
2013-06-03 02:29:00,64.8,62.7,29.80,WSW,257,5.0,13.0,93,0.00,,OVC110,0.00,0.00,VWS V14.01,2013-06-03 06:29:00,
2013-06-03 02:34:00,64.7,62.6,29.80,SW,236,3.0,15.0,93,0.00,,OVC110,0.00,0.00,VWS V14.01,2013-06-03 06:34:00,
2013-06-03 02:39:00,64.3,62.2,29.80,SW,235,5.0,19.0,93,0.00,,OVC110,0.00,0.00,VWS V14.01,2013-06-03 06:39:00,
2013-06-03 02:44:00,64.2,62.1,29.80,West,261,9.0,18.0,93,0.00,,OVC110,0.00,0.00,VWS V14.01,2013-06-03 06:44:00,
2013-06-03 02:49:00,64.3,62.2,29.79,West,271,2.0,14.0,93,0.00,,OVC110,0.00,0.00,VWS V14.01,2013-06-03 06:49:00,
2013-06-03 02:54:00,64.3,62.2,29.79,WSW,250,8.0,13.0,93,0.00,,OVC110,0.00,0.00,VWS V14.01,2013-06-03 06:54:00,
2013-06-03 02:59:00,64.3,62.2,29.79,WSW,248,0.0,15.0,93,0.00,,OVC110,0.00,0.00,VWS V14.01,2013-06-03 06:59:00,
2013-06-03 03:04:00,64.3,62.2,29.79,WSW,245,14.0,14.0,93,0.00,,OVC095,0.00,0.00,VWS V14.01,2013-06-03 07:04:00,
2013-06-03 03:09:00,64.4,62.3,29.79,WSW,252,12.0,13.0,93,0.00,,OVC095,0.00,0.00,VWS V14.01,2013-06-03 07:09:00,
2013-06-03 03:14:00,64.5,62.4,29.80,WSW,237,5.0,13.0,93,0.00,,OVC095,0.00,0.00,VWS V14.01,2013-06-03 07:14:00,
2013-06-03 03:19:00,64.5,62.4,29.80,West,271,2.0,10.0,93,0.00,,OVC095,0.00,0.00,VWS V14.01,2013-06-03 07:19:00,
2013-06-03 03:24:00,64.5,62.4,29.80,WSW,240,4.0,15.0,93,0.00,,OVC095,0.00,0.00,VWS V14.01,2013-06-03 07:24:00,
2013-06-03 03:29:00,64.5,62.4,29.80,West,276,9.0,17.0,93,0.00,,OVC095,0.00,0.00,VWS V14.01,2013-06-03 07:29:00,
2013-06-03 03:34:00,64.5,62.4,29.80,WSW,250,10.0,17.0,93,0.00,,OVC095,0.00,0.00,VWS V14.01,2013-06-03 07:34:00,
2013-06-03 03:39:00,64.5,62.4,29.80,WSW,250,7.0,15.0,93,0.00,,OVC095,0.00,0.00,VWS V14.01,2013-06-03 07:39:00,
2013-06-03 03:44:00,64.5,62.4,29.80,WNW,285,8.0,15.0,93,0.00,,OVC095,0.00,0.00,VWS V14.01,2013-06-03 07:44:00,
2013-06-03 03:49:00,64.5,62.7,29.79,WNW,290,4.0,11.0,94,0.00,,OVC095,0.00,0.00,VWS V14.01,2013-06-03 07:49:00,
2013-06-03 03:54:00,64.5,62.7,29.79,WNW,283,6.0,12.0,94,0.00,,OVC095,0.00,0.00,VWS V14.01,2013-06-03 07:54:00,
2013-06-03 03:59:00,64.6,62.8,29.79,West,265,3.0,11.0,94,0.00,,OVC095,0.00,0.00,VWS V14.01,2013-06-03 07:59:00,
2013-06-03 04:04:00,64.5,62.7,29.79,West,270,2.0,11.0,94,0.00,,OVC100,0.00,0.00,VWS V14.01,2013-06-03 08:04:00,
2013-06-03 04:09:00,64.3,62.5,29.80,WSW,253,7.0,11.0,94,0.00,,OVC100,0.00,0.00,VWS V14.01,2013-06-03 08:09:00,
2013-06-03 04:14:00,64.2,62.7,29.80,West,272,8.0,11.0,95,0.00,,OVC100,0.00,0.00,VWS V14.01,2013-06-03 08:14:00,
2013-06-03 04:19:00,64.0,62.2,29.80,WSW,258,6.0,13.0,94,0.00,,OVC100,0.00,0.00,VWS V14.01,2013-06-03 08:19:00,
2013-06-03 04:24:00,63.7,62.0,29.80,WSW,240,11.0,12.0,94,0.00,,OVC100,0.00,0.00,VWS V14.01,2013-06-03 08:24:00,
2013-06-03 04:29:00,63.6,62.2,29.80,West,270,6.0,14.0,95,0.00,,OVC100,0.00,0.00,VWS V14.01,2013-06-03 08:29:00,
2013-06-03 04:34:00,63.4,62.0,29.80,West,271,0.0,12.0,95,0.00,,OVC100,0.00,0.00,VWS V14.01,2013-06-03 08:34:00,
2013-06-03 04:39:00,63.4,62.0,29.80,West,276,4.0,11.0,95,0.00,,OVC100,0.00,0.00,VWS V14.01,2013-06-03 08:39:00,
2013-06-03 04:44:00,63.4,62.0,29.80,WSW,245,8.0,14.0,95,0.00,,OVC100,0.00,0.00,VWS V14.01,2013-06-03 08:44:00,
2013-06-03 04:49:00,63.2,61.8,29.80,WSW,252,8.0,13.0,95,0.01,,OVC100,0.01,0.00,VWS V14.01,2013-06-03 08:49:00,
2013-06-03 04:54:00,63.2,61.8,29.80,WSW,246,0.0,10.0,95,0.01,,OVC100,0.01,0.00,VWS V14.01,2013-06-03 08:54:00,
2013-06-03 04:59:00,63.2,61.8,29.80,West,275,8.0,12.0,95,0.01,,OVC100,0.01,0.00,VWS V14.01,2013-06-03 08:59:00,
2013-06-03 05:04:00,63.2,61.8,29.80,WSW,257,5.0,11.0,95,0.01,,BKN120,0.01,0.00,VWS V14.01,2013-06-03 09:04:00,
2013-06-03 05:09:00,63.2,61.8,29.81,SW,236,9.0,12.0,95,0.01,,BKN120,0.01,0.00,VWS V14.01,2013-06-03 09:09:00,
2013-06-03 05:14:00,63.4,62.0,29.81,WSW,253,4.0,11.0,95,0.01,,BKN120,0.01,0.00,VWS V14.01,2013-06-03 09:14:00,
2013-06-03 05:19:00,63.6,62.2,29.81,SW,233,10.0,10.0,95,0.01,,BKN120,0.01,0.00,VWS V14.01,2013-06-03 09:19:00,
2013-06-03 05:24:00,63.6,62.2,29.80,SW,233,1.0,11.0,95,0.01,,BKN120,0.01,0.00,VWS V14.01,2013-06-03 09:24:00,
2013-06-03 05:29:00,63.7,62.2,29.81,WSW,254,3.0,9.0,95,0.02,,BKN120,0.02,5.00,VWS V14.01,2013-06-03 09:29:00,
2013-06-03 05:34:00,63.8,62.3,29.81,SW,233,11.0,15.0,95,0.02,,BKN120,0.02,5.00,VWS V14.01,2013-06-03 09:34:00,
2013-06-03 05:39:00,63.7,62.2,29.81,WSW,237,7.0,11.0,95,0.02,,BKN120,0.02,7.00,VWS V14.01,2013-06-03 09:39:00,
2013-06-03 05:44:00,63.6,62.2,29.81,SW,234,5.0,14.0,95,0.02,,BKN120,0.02,11.00,VWS V14.01,2013-06-03 09:44:00,
2013-06-03 05:49:00,63.6,62.4,29.82,West,271,4.0,11.0,96,0.02,,BKN120,0.02,11.00,VWS V14.01,2013-06-03 09:49:00,
2013-06-03 05:54:00,63.5,62.0,29.81,SW,236,4.0,13.0,95,0.01,,BKN120,0.02,19.00,VWS V14.01,2013-06-03 09:54:00,
2013-06-03 05:59:00,63.3,61.8,29.81,SW,228,7.0,12.0,95,0.01,,BKN120,0.02,26.00,VWS V14.01,2013-06-03 09:59:00,
2013-06-03 06:04:00,63.2,62.0,29.83,West,269,4.0,11.0,96,0.01,,-RA,0.02,19.00,VWS V14.01,2013-06-03 10:04:00,
2013-06-03 06:09:00,63.1,61.9,29.83,SW,228,9.0,15.0,96,0.01,,-RA,0.02,23.00,VWS V14.01,2013-06-03 10:09:00,
2013-06-03 06:13:00,63.1,61.9,29.83,WSW,245,4.0,12.0,96,0.02,,-RA,0.03,30.00,VWS V14.01,2013-06-03 10:13:00,
2013-06-03 06:18:00,63.1,61.9,29.83,West,264,4.0,13.0,96,0.02,,-RA,0.03,30.00,VWS V14.01,2013-06-03 10:18:00,
2013-06-03 06:23:00,63.2,62.0,29.83,West,267,13.0,21.0,96,0.02,,-RA,0.03,28.00,VWS V14.01,2013-06-03 10:23:00,
2013-06-03 06:28:00,63.3,62.1,29.83,WNW,284,13.0,22.0,96,0.02,,-RA,0.03,26.00,VWS V14.01,2013-06-03 10:28:00,
2013-06-03 06:33:00,63.5,62.3,29.83,WNW,291,4.0,21.0,96,0.01,,-RA,0.03,33.00,VWS V14.01,2013-06-03 10:33:00,
2013-06-03 06:38:00,63.6,62.4,29.83,WSW,253,8.0,18.0,96,0.01,,-RA,0.03,26.00,VWS V14.01,2013-06-03 10:38:00,
2013-06-03 06:43:00,63.7,62.5,29.83,WSW,252,17.0,19.0,96,0.01,,-RA,0.03,28.00,VWS V14.01,2013-06-03 10:43:00,
2013-06-03 06:48:00,63.8,62.9,29.83,SW,222,7.0,14.0,97,0.01,,-RA,0.03,35.00,VWS V14.01,2013-06-03 10:48:00,
2013-06-03 06:53:00,63.8,62.9,29.82,WNW,287,8.0,16.0,97,0.01,,-RA,0.03,51.00,VWS V14.01,2013-06-03 10:53:00,
2013-06-03 06:58:00,63.8,62.9,29.82,WSW,251,5.0,12.0,97,0.01,,-RA,0.03,49.00,VWS V14.01,2013-06-03 10:58:00,
2013-06-03 07:03:00,63.8,62.9,29.82,West,273,8.0,13.0,97,0.01,,-RA,0.03,47.00,VWS V14.01,2013-06-03 11:03:00,
2013-06-03 07:08:00,63.8,62.9,29.82,West,261,8.0,17.0,97,0.01,,-RA,0.03,54.00,VWS V14.01,2013-06-03 11:08:00,
2013-06-03 07:13:00,63.8,62.9,29.82,WSW,254,8.0,14.0,97,0.01,,-RA,0.03,72.00,VWS V14.01,2013-06-03 11:13:00,
2013-06-03 07:18:00,63.9,63.0,29.82,West,275,6.0,13.0,97,0.00,,-RA,0.03,65.00,VWS V14.01,2013-06-03 11:18:00,
2013-06-03 07:23:00,64.1,63.2,29.82,SW,227,4.0,12.0,97,0.00,,-RA,0.03,70.00,VWS V14.01,2013-06-03 11:23:00,
2013-06-03 07:28:00,64.1,63.2,29.81,WSW,252,14.0,15.0,97,0.00,,-RA,0.03,60.00,VWS V14.01,2013-06-03 11:28:00,
2013-06-03 07:33:00,64.1,63.2,29.81,West,259,16.0,16.0,97,0.00,,-RA,0.03,70.00,VWS V14.01,2013-06-03 11:33:00,
2013-06-03 07:38:00,64.2,63.3,29.81,WSW,246,7.0,15.0,97,0.00,,-RA,0.03,70.00,VWS V14.01,2013-06-03 11:38:00,
2013-06-03 07:43:00,64.3,63.4,29.81,West,273,3.0,14.0,97,0.00,,-RA,0.03,76.00,VWS V14.01,2013-06-03 11:43:00,
2013-06-03 07:48:00,64.3,63.4,29.81,West,267,7.0,15.0,97,0.00,,-RA,0.03,69.00,VWS V14.01,2013-06-03 11:48:00,
2013-06-03 07:53:00,64.4,63.5,29.81,West,267,11.0,16.0,97,0.00,,-RA,0.03,72.00,VWS V14.01,2013-06-03 11:53:00,
2013-06-03 07:58:00,64.5,63.6,29.81,West,267,4.0,10.0,97,0.00,,-RA,0.03,65.00,VWS V14.01,2013-06-03 11:58:00,
2013-06-03 08:03:00,64.6,63.7,29.81,West,261,0.0,10.0,97,0.00,,-RA,0.03,72.00,VWS V14.01,2013-06-03 12:03:00,
2013-06-03 08:08:00,64.8,63.9,29.81,WNW,282,4.0,10.0,97,0.00,,-RA,0.03,60.00,VWS V14.01,2013-06-03 12:08:00,
2013-06-03 08:13:00,64.7,63.8,29.81,WNW,291,3.0,7.0,97,0.00,,-RA,0.03,70.00,VWS V14.01,2013-06-03 12:13:00,
2013-06-03 08:18:00,64.8,63.9,29.81,WNW,294,4.0,10.0,97,0.00,,-RA,0.03,98.00,VWS V14.01,2013-06-03 12:18:00,
2013-06-03 08:23:00,64.9,64.0,29.81,West,280,2.0,11.0,97,0.00,,-RA,0.03,93.00,VWS V14.01,2013-06-03 12:23:00,
2013-06-03 08:28:00,65.1,64.2,29.81,West,259,10.0,12.0,97,0.00,,-RA,0.03,113.00,VWS V14.01,2013-06-03 12:28:00,
2013-06-03 08:33:00,65.4,64.5,29.81,West,279,0.0,11.0,97,0.00,,-RA,0.03,149.00,VWS V14.01,2013-06-03 12:33:00,
2013-06-03 08:38:00,65.6,64.7,29.81,WSW,242,1.0,12.0,97,0.00,,-RA,0.03,229.00,VWS V14.01,2013-06-03 12:38:00,
2013-06-03 08:43:00,66.4,65.5,29.81,WSW,248,0.0,11.0,97,0.00,,-RA,0.03,371.00,VWS V14.01,2013-06-03 12:43:00,
2013-06-03 08:48:00,66.8,65.9,29.81,West,261,9.0,14.0,97,0.00,,-RA,0.03,118.00,VWS V14.01,2013-06-03 12:48:00,
2013-06-03 08:53:00,66.2,65.0,29.81,WSW,243,0.0,14.0,96,0.01,,-RA,0.04,53.00,VWS V14.01,2013-06-03 12:53:00,
2013-06-03 08:58:00,65.8,64.6,29.81,West,277,4.0,12.0,96,0.01,,-RA,0.04,63.00,VWS V14.01,2013-06-03 12:58:00,
2013-06-03 09:03:00,65.6,64.4,29.81,WSW,255,3.0,12.0,96,0.01,,-RA,0.04,46.00,VWS V14.01,2013-06-03 13:03:00,
2013-06-03 09:08:00,65.6,64.4,29.81,West,264,3.0,16.0,96,0.01,,-RA,0.04,104.00,VWS V14.01,2013-06-03 13:08:00,
2013-06-03 09:13:00,65.5,64.3,29.82,WSW,257,8.0,15.0,96,0.01,,-RA,0.04,60.00,VWS V14.01,2013-06-03 13:13:00,
2013-06-03 09:18:00,65.3,64.1,29.81,SSW,202,8.0,13.0,96,0.01,,-RA,0.04,70.00,VWS V14.01,2013-06-03 13:18:00,
2013-06-03 09:23:00,65.2,64.0,29.81,West,265,3.0,18.0,96,0.01,,-RA,0.04,109.00,VWS V14.01,2013-06-03 13:23:00,
2013-06-03 09:28:00,65.2,64.0,29.81,SW,227,8.0,13.0,96,0.01,,-RA,0.04,123.00,VWS V14.01,2013-06-03 13:28:00,
2013-06-03 09:33:00,65.2,64.0,29.81,WNW,292,10.0,16.0,96,0.01,,-RA,0.04,116.00,VWS V14.01,2013-06-03 13:33:00,
2013-06-03 09:38:00,65.2,64.0,29.81,NW,318,4.0,12.0,96,0.01,,-RA,0.04,135.00,VWS V14.01,2013-06-03 13:38:00,
2013-06-03 09:43:00,65.4,64.2,29.81,West,273,12.0,17.0,96,0.01,,-RA,0.04,132.00,VWS V14.01,2013-06-03 13:43:00,
2013-06-03 09:48:00,65.5,64.3,29.81,West,278,13.0,17.0,96,0.01,,-RA,0.04,144.00,VWS V14.01,2013-06-03 13:48:00,
2013-06-03 09:53:00,65.7,64.5,29.81,WSW,247,13.0,18.0,96,0.01,,-RA,0.04,135.00,VWS V14.01,2013-06-03 13:53:00,
2013-06-03 09:58:00,65.8,64.9,29.82,WNW,290,4.0,18.0,97,0.01,,-RA,0.05,190.00,VWS V14.01,2013-06-03 13:58:00,
2013-06-03 10:03:00,65.9,65.0,29.81,WNW,283,13.0,17.0,97,0.01,,-RA,0.05,155.00,VWS V14.01,2013-06-03 14:03:00,
2013-06-03 10:08:00,65.8,64.6,29.82,NW,309,10.0,23.0,96,0.02,,-RA,0.06,160.00,VWS V14.01,2013-06-03 14:08:00,
2013-06-03 10:13:00,65.8,64.6,29.81,West,281,15.0,15.0,96,0.03,,-RA,0.07,127.00,VWS V14.01,2013-06-03 14:13:00,
2013-06-03 10:18:00,65.7,64.5,29.81,WNW,295,10.0,19.0,96,0.04,,-RA,0.08,125.00,VWS V14.01,2013-06-03 14:18:00,
2013-06-03 10:23:00,65.6,64.4,29.81,West,272,6.0,16.0,96,0.05,,-RA,0.09,97.00,VWS V14.01,2013-06-03 14:23:00,
2013-06-03 10:28:00,65.5,64.3,29.81,West,273,10.0,15.0,96,0.07,,-RA,0.11,86.00,VWS V14.01,2013-06-03 14:28:00,
2013-06-03 10:33:00,65.4,64.2,29.81,WNW,285,10.0,17.0,96,0.09,,-RA,0.13,95.00,VWS V14.01,2013-06-03 14:33:00,
2013-06-03 10:38:00,65.4,64.2,29.81,WNW,284,8.0,13.0,96,0.11,,-RA,0.15,104.00,VWS V14.01,2013-06-03 14:38:00,
2013-06-03 10:43:00,65.4,64.2,29.82,WNW,295,3.0,15.0,96,0.12,,-RA,0.16,125.00,VWS V14.01,2013-06-03 14:43:00,
2013-06-03 10:48:00,65.4,64.2,29.82,West,271,3.0,14.0,96,0.13,,-RA,0.17,153.00,VWS V14.01,2013-06-03 14:48:00,
2013-06-03 10:53:00,65.5,64.3,29.82,West,269,14.0,16.0,96,0.13,,-RA,0.17,214.00,VWS V14.01,2013-06-03 14:53:00,
2013-06-03 10:58:00,65.7,64.5,29.82,WNW,292,5.0,14.0,96,0.13,,-RA,0.17,185.00,VWS V14.01,2013-06-03 14:58:00,
2013-06-03 11:03:00,65.7,64.8,29.82,West,265,1.0,11.0,97,0.12,,-RA,0.17,104.00,VWS V14.01,2013-06-03 15:03:00,
2013-06-03 11:08:00,65.7,64.5,29.82,West,279,10.0,15.0,96,0.13,,-RA,0.18,202.00,VWS V14.01,2013-06-03 15:08:00,
2013-06-03 11:13:00,65.8,64.9,29.82,NNW,327,4.0,14.0,97,0.12,,-RA,0.18,229.00,VWS V14.01,2013-06-03 15:13:00,
2013-06-03 11:18:00,66.1,64.9,29.82,NW,306,4.0,13.0,96,0.11,,-RA,0.18,279.00,VWS V14.01,2013-06-03 15:18:00,
2013-06-03 11:23:00,66.4,65.5,29.82,WNW,286,0.0,12.0,97,0.10,,-RA,0.18,325.00,VWS V14.01,2013-06-03 15:23:00,
2013-06-03 11:28:00,66.6,65.7,29.82,West,260,9.0,15.0,97,0.08,,-RA,0.18,225.00,VWS V14.01,2013-06-03 15:28:00,
2013-06-03 11:33:00,66.6,65.7,29.82,NW,310,3.0,13.0,97,0.06,,-RA,0.18,169.00,VWS V14.01,2013-06-03 15:33:00,
2013-06-03 11:38:00,66.6,65.7,29.82,West,271,0.0,12.0,97,0.04,,-RA,0.18,283.00,VWS V14.01,2013-06-03 15:38:00,
2013-06-03 11:43:00,67.0,66.1,29.82,West,260,14.0,14.0,97,0.03,,-RA,0.18,306.00,VWS V14.01,2013-06-03 15:43:00,
2013-06-03 11:48:00,67.3,66.4,29.82,West,269,6.0,14.0,97,0.02,,-RA,0.19,424.00,VWS V14.01,2013-06-03 15:48:00,
2013-06-03 11:53:00,67.6,66.7,29.82,West,267,9.0,14.0,97,0.02,,-RA,0.19,422.00,VWS V14.01,2013-06-03 15:53:00,
2013-06-03 11:58:00,67.8,66.9,29.82,West,274,4.0,13.0,97,0.02,,-RA,0.19,278.00,VWS V14.01,2013-06-03 15:58:00,
2013-06-03 12:03:00,67.5,66.3,29.82,SW,234,13.0,15.0,96,0.02,,,0.19,204.00,VWS V14.01,2013-06-03 16:03:00,
2013-06-03 12:08:00,67.3,66.1,29.81,West,265,4.0,11.0,96,0.02,,,0.19,206.00,VWS V14.01,2013-06-03 16:08:00,
2013-06-03 12:13:00,67.2,66.0,29.81,WSW,243,2.0,12.0,96,0.01,,,0.19,299.00,VWS V14.01,2013-06-03 16:13:00,
2013-06-03 12:18:00,67.6,66.4,29.81,WSW,244,0.0,11.0,96,0.01,,,0.19,420.00,VWS V14.01,2013-06-03 16:18:00,
2013-06-03 12:23:00,68.2,67.0,29.81,West,271,6.0,11.0,96,0.01,,,0.19,506.00,VWS V14.01,2013-06-03 16:23:00,
2013-06-03 12:28:00,67.9,66.7,29.81,West,281,7.0,12.0,96,0.01,,,0.19,169.00,VWS V14.01,2013-06-03 16:28:00,
2013-06-03 12:33:00,67.5,66.3,29.81,WNW,286,7.0,9.0,96,0.01,,,0.19,135.00,VWS V14.01,2013-06-03 16:33:00,
2013-06-03 12:38:00,67.4,66.2,29.81,WNW,285,1.0,8.0,96,0.01,,,0.19,283.00,VWS V14.01,2013-06-03 16:38:00,
2013-06-03 12:43:00,67.7,66.5,29.80,SW,233,7.0,9.0,96,0.01,,,0.19,359.00,VWS V14.01,2013-06-03 16:43:00,
2013-06-03 12:48:00,68.3,67.1,29.80,SW,234,5.0,12.0,96,0.01,,,0.19,468.00,VWS V14.01,2013-06-03 16:48:00,
2013-06-03 12:53:00,68.4,67.2,29.80,West,267,7.0,13.0,96,0.00,,,0.19,251.00,VWS V14.01,2013-06-03 16:53:00,
2013-06-03 12:58:00,67.7,66.5,29.81,West,262,0.0,11.0,96,0.00,,,0.19,142.00,VWS V14.01,2013-06-03 16:58:00,
2013-06-03 13:03:00,67.4,66.2,29.80,West,267,0.0,10.0,96,0.00,,,0.19,163.00,VWS V14.01,2013-06-03 17:03:00,
2013-06-03 13:08:00,67.4,66.2,29.81,WNW,288,0.0,4.0,96,0.00,,,0.19,167.00,VWS V14.01,2013-06-03 17:08:00,
2013-06-03 13:12:00,67.4,66.2,29.81,WNW,295,4.0,8.0,96,0.00,,,0.19,146.00,VWS V14.01,2013-06-03 17:12:00,
2013-06-03 13:17:00,67.3,66.1,29.80,WNW,295,0.0,7.0,96,0.00,,,0.19,244.00,VWS V14.01,2013-06-03 17:17:00,
2013-06-03 13:22:00,67.3,66.1,29.80,West,279,2.0,10.0,96,0.00,,,0.19,146.00,VWS V14.01,2013-06-03 17:22:00,
2013-06-03 13:27:00,67.0,65.8,29.80,NW,307,0.0,4.0,96,0.00,,,0.19,146.00,VWS V14.01,2013-06-03 17:27:00,
2013-06-03 13:32:00,66.7,65.5,29.80,North,5,0.0,8.0,96,0.00,,,0.19,105.00,VWS V14.01,2013-06-03 17:32:00,
2013-06-03 13:37:00,65.7,64.2,29.81,North,355,3.0,8.0,95,0.00,,,0.19,93.00,VWS V14.01,2013-06-03 17:37:00,
2013-06-03 13:42:00,65.5,64.3,29.81,North,360,0.0,2.0,96,0.00,,,0.19,114.00,VWS V14.01,2013-06-03 17:42:00,
2013-06-03 13:47:00,65.9,64.7,29.80,North,350,0.0,0.0,96,0.00,,,0.19,127.00,VWS V14.01,2013-06-03 17:47:00,
2013-06-03 13:52:00,66.1,64.9,29.80,NW,324,4.0,9.0,96,0.00,,,0.19,142.00,VWS V14.01,2013-06-03 17:52:00,
2013-06-03 13:57:00,66.4,65.2,29.80,NNW,341,0.0,11.0,96,0.00,,,0.19,267.00,VWS V14.01,2013-06-03 17:57:00,
2013-06-03 14:02:00,66.9,65.7,29.80,NNW,332,0.0,9.0,96,0.00,,-RA,0.19,229.00,VWS V14.01,2013-06-03 18:02:00,
2013-06-03 14:07:00,67.3,66.1,29.80,NNW,341,5.0,10.0,96,0.00,,-RA,0.19,346.00,VWS V14.01,2013-06-03 18:07:00,
2013-06-03 14:12:00,67.6,66.4,29.79,NW,321,0.0,5.0,96,0.00,,-RA,0.19,404.00,VWS V14.01,2013-06-03 18:12:00,
2013-06-03 14:17:00,68.4,67.2,29.80,NW,313,0.0,3.0,96,0.00,,-RA,0.19,464.00,VWS V14.01,2013-06-03 18:17:00,
2013-06-03 14:22:00,68.9,67.4,29.80,NW,312,0.0,6.0,95,0.00,,-RA,0.19,244.00,VWS V14.01,2013-06-03 18:22:00,
2013-06-03 14:27:00,69.2,67.4,29.80,WNW,292,0.0,7.0,94,0.00,,-RA,0.19,243.00,VWS V14.01,2013-06-03 18:27:00,
2013-06-03 14:32:00,69.5,67.7,29.80,WNW,291,0.0,5.0,94,0.00,,-RA,0.19,279.00,VWS V14.01,2013-06-03 18:32:00,
2013-06-03 14:37:00,69.7,67.3,29.80,West,265,4.0,8.0,92,0.00,,-RA,0.19,239.00,VWS V14.01,2013-06-03 18:37:00,
2013-06-03 14:42:00,69.7,67.3,29.80,WSW,246,0.0,2.0,92,0.00,,-RA,0.19,227.00,VWS V14.01,2013-06-03 18:42:00,
2013-06-03 14:47:00,69.4,67.0,29.81,WNW,295,1.0,8.0,92,0.00,,-RA,0.19,181.00,VWS V14.01,2013-06-03 18:47:00,
2013-06-03 14:52:00,69.2,66.8,29.81,West,265,0.0,7.0,92,0.00,,-RA,0.19,158.00,VWS V14.01,2013-06-03 18:52:00,
2013-06-03 14:57:00,69.0,66.3,29.81,West,279,1.0,7.0,91,0.00,,-RA,0.19,179.00,VWS V14.01,2013-06-03 18:57:00,
2013-06-03 15:02:00,68.8,66.4,29.81,WNW,284,0.0,10.0,92,0.00,,OVC004,0.19,195.00,VWS V14.01,2013-06-03 19:02:00,
2013-06-03 15:07:00,68.8,66.4,29.81,WNW,288,7.0,8.0,92,0.00,,OVC004,0.19,250.00,VWS V14.01,2013-06-03 19:07:00,
2013-06-03 15:12:00,68.9,66.5,29.81,West,274,7.0,7.0,92,0.00,,OVC004,0.19,304.00,VWS V14.01,2013-06-03 19:12:00,
2013-06-03 15:17:00,69.1,66.7,29.81,WNW,294,0.0,7.0,92,0.00,,OVC004,0.19,257.00,VWS V14.01,2013-06-03 19:17:00,
2013-06-03 15:22:00,69.2,66.8,29.80,WSW,250,0.0,9.0,92,0.00,,OVC004,0.19,274.00,VWS V14.01,2013-06-03 19:22:00,
2013-06-03 15:27:00,69.2,66.8,29.80,WSW,257,0.0,8.0,92,0.00,,OVC004,0.19,320.00,VWS V14.01,2013-06-03 19:27:00,
2013-06-03 15:32:00,69.6,67.2,29.80,SW,232,7.0,7.0,92,0.00,,OVC004,0.19,341.00,VWS V14.01,2013-06-03 19:32:00,
2013-06-03 15:37:00,69.6,66.9,29.80,WSW,247,8.0,11.0,91,0.00,,OVC004,0.19,353.00,VWS V14.01,2013-06-03 19:37:00,
2013-06-03 15:42:00,69.9,67.2,29.80,West,270,8.0,9.0,91,0.00,,OVC004,0.19,388.00,VWS V14.01,2013-06-03 19:42:00,
2013-06-03 15:47:00,70.3,67.6,29.80,WSW,245,2.0,8.0,91,0.00,,OVC004,0.19,229.00,VWS V14.01,2013-06-03 19:47:00,
2013-06-03 15:52:00,70.1,67.0,29.81,WNW,303,2.0,10.0,90,0.00,,OVC004,0.19,236.00,VWS V14.01,2013-06-03 19:52:00,
2013-06-03 15:57:00,69.8,67.1,29.80,West,267,0.0,3.0,91,0.00,,OVC004,0.19,316.00,VWS V14.01,2013-06-03 19:57:00,
2013-06-03 16:02:00,69.6,66.5,29.80,WNW,290,3.0,4.0,90,0.00,,OVC004,0.19,192.00,VWS V14.01,2013-06-03 20:02:00,
2013-06-03 16:07:00,68.9,65.8,29.80,WNW,293,0.0,8.0,90,0.00,,,0.19,225.00,VWS V14.01,2013-06-03 20:07:00,
2013-06-03 16:12:00,69.0,66.6,29.80,West,269,6.0,7.0,92,0.00,,,0.19,315.00,VWS V14.01,2013-06-03 20:12:00,
2013-06-03 16:17:00,69.8,67.1,29.80,West,276,0.0,9.0,91,0.00,,,0.19,592.00,VWS V14.01,2013-06-03 20:17:00,
2013-06-03 16:22:00,70.5,67.4,29.79,WSW,249,5.0,9.0,90,0.00,,,0.19,432.00,VWS V14.01,2013-06-03 20:22:00,
2013-06-03 16:27:00,70.9,67.5,29.79,WSW,253,1.0,5.0,89,0.00,,,0.19,436.00,VWS V14.01,2013-06-03 20:27:00,
2013-06-03 16:32:00,71.0,67.6,29.78,WSW,255,5.0,5.0,89,0.00,,,0.19,631.00,VWS V14.01,2013-06-03 20:32:00,
2013-06-03 16:37:00,71.0,67.6,29.78,WSW,250,4.0,4.0,89,0.00,,,0.19,540.00,VWS V14.01,2013-06-03 20:37:00,
2013-06-03 16:42:00,71.0,67.6,29.78,WSW,252,1.0,6.0,89,0.00,,,0.19,459.00,VWS V14.01,2013-06-03 20:42:00,
2013-06-03 16:47:00,70.5,66.8,29.78,WSW,254,0.0,9.0,88,0.00,,,0.19,441.00,VWS V14.01,2013-06-03 20:47:00,
2013-06-03 16:52:00,70.5,67.1,29.78,WSW,240,3.0,7.0,89,0.00,,,0.19,406.00,VWS V14.01,2013-06-03 20:52:00,
2013-06-03 16:57:00,70.0,66.6,29.78,SW,228,1.0,8.0,89,0.00,,,0.19,334.00,VWS V14.01,2013-06-03 20:57:00,
2013-06-03 17:02:00,69.7,66.3,29.78,WSW,245,3.0,8.0,89,0.00,,OVC070,0.19,288.00,VWS V14.01,2013-06-03 21:02:00,
2013-06-03 17:07:00,70.0,66.9,29.78,SW,235,3.0,3.0,90,0.00,,OVC070,0.19,299.00,VWS V14.01,2013-06-03 21:07:00,
2013-06-03 17:12:00,70.4,67.0,29.78,WSW,249,0.0,5.0,89,0.00,,OVC070,0.19,334.00,VWS V14.01,2013-06-03 21:12:00,
2013-06-03 17:17:00,70.9,67.5,29.78,WSW,257,4.0,7.0,89,0.00,,OVC070,0.19,257.00,VWS V14.01,2013-06-03 21:17:00,
2013-06-03 17:22:00,71.2,67.5,29.78,WSW,248,0.0,7.0,88,0.00,,OVC070,0.19,294.00,VWS V14.01,2013-06-03 21:22:00,
2013-06-03 17:27:00,71.0,67.3,29.78,WSW,237,0.0,3.0,88,0.00,,OVC070,0.19,313.00,VWS V14.01,2013-06-03 21:27:00,
2013-06-03 17:32:00,70.6,67.2,29.77,SW,231,0.0,5.0,89,0.00,,OVC070,0.19,292.00,VWS V14.01,2013-06-03 21:32:00,
2013-06-03 17:37:00,70.6,67.5,29.77,SW,236,0.0,4.0,90,0.00,,OVC070,0.19,234.00,VWS V14.01,2013-06-03 21:37:00,
2013-06-03 17:42:00,70.4,67.0,29.77,WSW,248,2.0,8.0,89,0.00,,OVC070,0.19,213.00,VWS V14.01,2013-06-03 21:42:00,
2013-06-03 17:47:00,69.7,66.3,29.77,SW,236,4.0,12.0,89,0.00,,OVC070,0.19,220.00,VWS V14.01,2013-06-03 21:47:00,
2013-06-03 17:52:00,69.0,65.9,29.77,WNW,286,8.0,11.0,90,0.00,,OVC070,0.19,251.00,VWS V14.01,2013-06-03 21:52:00,
2013-06-03 17:57:00,68.9,65.8,29.77,West,267,6.0,11.0,90,0.00,,OVC070,0.19,200.00,VWS V14.01,2013-06-03 21:57:00,
2013-06-03 18:02:00,68.8,65.8,29.77,West,260,10.0,11.0,90,0.00,,OVC070,0.19,160.00,VWS V14.01,2013-06-03 22:02:00,
2013-06-03 18:07:00,68.5,65.8,29.76,WNW,290,0.0,7.0,91,0.00,,,0.19,137.00,VWS V14.01,2013-06-03 22:07:00,
2013-06-03 18:12:00,68.5,66.1,29.76,West,267,0.0,4.0,92,0.00,,,0.19,128.00,VWS V14.01,2013-06-03 22:12:00,
2013-06-03 18:17:00,68.4,66.0,29.77,WSW,255,4.0,9.0,92,0.00,,,0.19,118.00,VWS V14.01,2013-06-03 22:17:00,
2013-06-03 18:22:00,68.3,65.9,29.77,WSW,238,1.0,9.0,92,0.00,,,0.19,114.00,VWS V14.01,2013-06-03 22:22:00,
2013-06-03 18:27:00,68.3,65.9,29.77,WSW,250,0.0,7.0,92,0.00,,,0.19,100.00,VWS V14.01,2013-06-03 22:27:00,
2013-06-03 18:32:00,68.0,65.6,29.77,WNW,286,0.0,8.0,92,0.00,,,0.19,97.00,VWS V14.01,2013-06-03 22:32:00,
2013-06-03 18:37:00,67.8,65.7,29.77,West,271,0.0,8.0,93,0.00,,,0.19,100.00,VWS V14.01,2013-06-03 22:37:00,
2013-06-03 18:42:00,67.7,65.6,29.77,WNW,294,0.0,7.0,93,0.00,,,0.19,98.00,VWS V14.01,2013-06-03 22:42:00,
2013-06-03 18:47:00,67.5,65.4,29.77,West,275,1.0,8.0,93,0.00,,,0.19,91.00,VWS V14.01,2013-06-03 22:47:00,
2013-06-03 18:52:00,67.4,65.3,29.78,West,259,4.0,8.0,93,0.00,,,0.19,84.00,VWS V14.01,2013-06-03 22:52:00,
2013-06-03 18:57:00,67.4,65.3,29.77,WSW,240,6.0,9.0,93,0.00,,,0.19,83.00,VWS V14.01,2013-06-03 22:57:00,
2013-06-03 19:02:00,67.3,65.2,29.78,West,275,8.0,10.0,93,0.00,,OVC002,0.19,74.00,VWS V14.01,2013-06-03 23:02:00,
2013-06-03 19:07:00,67.4,65.3,29.78,West,271,6.0,9.0,93,0.00,,OVC002,0.19,69.00,VWS V14.01,2013-06-03 23:07:00,
2013-06-03 19:12:00,67.2,65.1,29.78,West,281,2.0,8.0,93,0.00,,OVC002,0.19,60.00,VWS V14.01,2013-06-03 23:12:00,
2013-06-03 19:17:00,67.0,64.9,29.78,West,275,3.0,8.0,93,0.00,,OVC002,0.19,58.00,VWS V14.01,2013-06-03 23:17:00,
2013-06-03 19:22:00,66.9,65.1,29.78,West,269,0.0,7.0,94,0.00,,OVC002,0.19,54.00,VWS V14.01,2013-06-03 23:22:00,
2013-06-03 19:27:00,66.8,65.0,29.79,West,278,0.0,1.0,94,0.00,,OVC002,0.19,46.00,VWS V14.01,2013-06-03 23:27:00,
2013-06-03 19:32:00,66.7,64.9,29.79,NNW,348,0.0,3.0,94,0.00,,OVC002,0.19,39.00,VWS V14.01,2013-06-03 23:32:00,
2013-06-03 19:37:00,66.6,64.8,29.78,NNW,347,0.0,4.0,94,0.00,,OVC002,0.19,33.00,VWS V14.01,2013-06-03 23:37:00,
2013-06-03 19:41:00,66.4,64.6,29.78,NNW,340,0.0,4.0,94,0.00,,OVC002,0.19,32.00,VWS V14.01,2013-06-03 23:41:00,
2013-06-03 19:46:00,66.4,64.6,29.79,WNW,289,0.0,0.0,94,0.00,,OVC002,0.19,32.00,VWS V14.01,2013-06-03 23:46:00,
2013-06-03 19:51:00,66.5,65.0,29.79,WNW,290,0.0,0.0,95,0.00,,OVC002,0.19,25.00,VWS V14.01,2013-06-03 23:51:00,
2013-06-03 19:56:00,66.6,65.1,29.78,WNW,290,0.0,0.0,95,0.00,,OVC002,0.19,28.00,VWS V14.01,2013-06-03 23:56:00,
2013-06-03 20:01:00,66.6,65.1,29.79,WNW,289,0.0,4.0,95,0.00,,OVC002,0.19,28.00,VWS V14.01,2013-06-04 00:01:00,
2013-06-03 20:06:00,66.5,65.0,29.78,West,268,1.0,7.0,95,0.00,,OVC002,0.19,21.00,VWS V14.01,2013-06-04 00:06:00,
2013-06-03 20:11:00,66.4,64.9,29.78,WNW,284,0.0,7.0,95,0.00,,OVC002,0.19,19.00,VWS V14.01,2013-06-04 00:11:00,
2013-06-03 20:16:00,66.3,64.8,29.78,West,263,3.0,8.0,95,0.00,,OVC002,0.19,14.00,VWS V14.01,2013-06-04 00:16:00,
2013-06-03 20:21:00,66.1,64.6,29.78,West,265,0.0,0.0,95,0.00,,OVC002,0.19,11.00,VWS V14.01,2013-06-04 00:21:00,
2013-06-03 20:26:00,65.9,64.4,29.78,West,265,0.0,0.0,95,0.00,,OVC002,0.19,7.00,VWS V14.01,2013-06-04 00:26:00,
2013-06-03 20:31:00,65.8,64.3,29.78,West,265,0.0,0.0,95,0.00,,OVC002,0.19,0.00,VWS V14.01,2013-06-04 00:31:00,
2013-06-03 20:36:00,65.7,64.2,29.78,West,265,0.0,0.0,95,0.00,,OVC002,0.19,0.00,VWS V14.01,2013-06-04 00:36:00,
2013-06-03 20:41:00,65.7,64.2,29.78,West,265,0.0,0.0,95,0.00,,OVC002,0.19,0.00,VWS V14.01,2013-06-04 00:41:00,
2013-06-03 20:46:00,65.6,64.4,29.78,West,264,0.0,0.0,96,0.00,,OVC002,0.19,0.00,VWS V14.01,2013-06-04 00:46:00,
2013-06-03 20:51:00,65.5,64.3,29.78,West,265,0.0,0.0,96,0.00,,OVC002,0.19,0.00,VWS V14.01,2013-06-04 00:51:00,
2013-06-03 20:56:00,65.4,64.2,29.78,West,265,0.0,0.0,96,0.00,,OVC002,0.19,0.00,VWS V14.01,2013-06-04 00:56:00,
2013-06-03 21:01:00,65.3,64.1,29.79,West,269,3.0,4.0,96,0.00,,OVC002,0.19,0.00,VWS V14.01,2013-06-04 01:01:00,
2013-06-03 21:06:00,65.2,64.0,29.79,West,275,3.0,3.0,96,0.00,,BKN110,0.19,0.00,VWS V14.01,2013-06-04 01:06:00,
2013-06-03 21:11:00,65.0,63.8,29.79,West,275,4.0,7.0,96,0.00,,BKN110,0.19,0.00,VWS V14.01,2013-06-04 01:11:00,
2013-06-03 21:16:00,64.9,63.7,29.79,West,276,0.0,4.0,96,0.00,,BKN110,0.19,0.00,VWS V14.01,2013-06-04 01:16:00,
2013-06-03 21:21:00,64.8,63.6,29.79,WNW,282,0.0,1.0,96,0.00,,BKN110,0.19,0.00,VWS V14.01,2013-06-04 01:21:00,
2013-06-03 21:26:00,64.8,63.6,29.79,WNW,283,0.0,1.0,96,0.00,,BKN110,0.19,0.00,VWS V14.01,2013-06-04 01:26:00,
2013-06-03 21:31:00,64.7,63.5,29.79,West,281,0.0,0.0,96,0.00,,BKN110,0.19,0.00,VWS V14.01,2013-06-04 01:31:00,
2013-06-03 21:36:00,64.6,63.4,29.80,West,279,0.0,7.0,96,0.00,,BKN110,0.19,0.00,VWS V14.01,2013-06-04 01:36:00,
2013-06-03 21:40:00,64.5,63.3,29.80,West,270,1.0,7.0,96,0.00,,BKN110,0.19,0.00,VWS V14.01,2013-06-04 01:40:00,
2013-06-03 21:45:00,64.5,63.6,29.80,West,270,0.0,6.0,97,0.00,,BKN110,0.19,0.00,VWS V14.01,2013-06-04 01:45:00,
2013-06-03 21:50:00,64.5,63.6,29.80,West,270,0.0,4.0,97,0.00,,BKN110,0.19,0.00,VWS V14.01,2013-06-04 01:50:00,
2013-06-03 21:55:00,64.4,63.5,29.80,West,270,0.0,0.0,97,0.00,,BKN110,0.19,0.00,VWS V14.01,2013-06-04 01:55:00,
2013-06-03 22:00:00,64.5,63.6,29.80,West,270,0.0,0.0,97,0.00,,BKN110,0.19,0.00,VWS V14.01,2013-06-04 02:00:00,
2013-06-03 22:05:00,64.6,63.7,29.80,West,270,0.0,0.0,97,0.00,,BKN110,0.19,0.00,VWS V14.01,2013-06-04 02:05:00,
2013-06-03 22:10:00,64.7,63.8,29.80,West,270,0.0,0.0,97,0.00,,BKN110,0.19,0.00,VWS V14.01,2013-06-04 02:10:00,
2013-06-03 22:25:00,64.7,63.8,29.80,West,270,0.0,0.0,97,0.00,,BKN110,0.19,0.00,VWS V14.01,2013-06-04 02:25:00,
2013-06-03 22:30:00,64.6,63.7,29.80,WNW,282,0.0,0.0,97,0.00,,BKN110,0.19,0.00,VWS V14.01,2013-06-04 02:30:00,
2013-06-03 22:35:00,64.5,63.6,29.80,WNW,282,0.0,0.0,97,0.00,,,0.19,0.00,VWS V14.01,2013-06-04 02:35:00,
2013-06-03 22:39:00,64.5,63.6,29.80,WNW,283,0.0,0.0,97,0.00,,,0.19,0.00,VWS V14.01,2013-06-04 02:39:00,
2013-06-03 22:44:00,64.9,64.0,29.80,NNW,341,0.0,4.0,97,0.00,,,0.19,0.00,VWS V14.01,2013-06-04 02:44:00,
2013-06-03 22:49:00,65.7,64.8,29.80,NW,317,0.0,6.0,97,0.00,,,0.19,0.00,VWS V14.01,2013-06-04 02:49:00,
2013-06-03 22:54:00,65.9,65.0,29.80,NNW,329,5.0,6.0,97,0.00,,,0.19,0.00,VWS V14.01,2013-06-04 02:54:00,
2013-06-03 22:59:00,66.1,65.2,29.80,North,360,0.0,8.0,97,0.00,,,0.19,0.00,VWS V14.01,2013-06-04 02:59:00,
2013-06-03 23:04:00,66.1,65.2,29.80,North,350,5.0,8.0,97,0.00,,,0.19,0.00,VWS V14.01,2013-06-04 03:04:00,
2013-06-03 23:09:00,65.9,65.0,29.80,NNE,19,5.0,6.0,97,0.00,,,0.19,0.00,VWS V14.01,2013-06-04 03:09:00,
2013-06-03 23:14:00,65.5,64.6,29.80,North,360,8.0,9.0,97,0.00,,,0.19,0.00,VWS V14.01,2013-06-04 03:14:00,
2013-06-03 23:19:00,65.1,64.2,29.80,North,360,5.0,11.0,97,0.00,,,0.19,0.00,VWS V14.01,2013-06-04 03:19:00,
2013-06-03 23:24:00,64.6,63.7,29.80,North,5,3.0,11.0,97,0.00,,,0.19,0.00,VWS V14.01,2013-06-04 03:24:00,
2013-06-03 23:29:00,64.2,63.3,29.80,North,360,0.0,6.0,97,0.00,,,0.19,0.00,VWS V14.01,2013-06-04 03:29:00,
2013-06-03 23:34:00,63.8,62.9,29.80,North,360,0.0,3.0,97,0.00,,,0.19,0.00,VWS V14.01,2013-06-04 03:34:00,
2013-06-03 23:39:00,63.7,62.8,29.81,North,355,5.0,9.0,97,0.00,,,0.19,0.00,VWS V14.01,2013-06-04 03:39:00,
2013-06-03 23:44:00,63.3,62.4,29.81,North,11,8.0,12.0,97,0.00,,,0.19,0.00,VWS V14.01,2013-06-04 03:44:00,
2013-06-03 23:49:00,62.6,61.7,29.81,NNE,22,2.0,11.0,97,0.00,,,0.19,0.00,VWS V14.01,2013-06-04 03:49:00,
2013-06-03 23:54:00,62.2,61.0,29.81,ENE,57,4.0,8.0,96,0.00,,,0.19,0.00,VWS V14.01,2013-06-04 03:54:00,
2013-06-03 23:59:00,62.0,60.8,29.81,NNE,24,9.0,10.0,96,0.00,,,0.19,0.00,VWS V14.01,2013-06-04 03:59:00,